Newport, AR

10:34 AM CST on November 24, 2017 (GMT -0600)
Newport

Weather History for KM19 - July, 2013

Change the Weather History Date:

Tuesday, July 23, 2013

  Actual Average (KBVX) Record (KBVX)
Temperature  
Mean Temperature 78 °F -  
Max Temperature 90 °F 92 °F 102 °F (1974)
Min Temperature 66 °F 68 °F 57 °F (2007)
Cooling Degree Days 13    
Growing Degree Days 28 (Base 50)    
Moisture  
Dew Point 70 °F    
Average Humidity 87    
Maximum Humidity 100    
Minimum Humidity 61    
Precipitation  
Precipitation 1.03 in - - ()
Sea Level Pressure  
Sea Level Pressure 29.92 in    
Wind  
Wind Speed 11 mph (SSE)    
Max Wind Speed 30 mph    
Max Gust Speed 43 mph    
Visibility 9 miles    
Events Rain , Thunderstorm    
Averages and records for this station are not official NWS values.
T = Trace of Precipitation, MM = Missing Value Source: NWS Daily Summary

Daily Weather History Graph

Daily Weather History Graph

Search for Another Location

Airport or City:

Trip Planner

Search our weather history database for the weather conditions in past years. The results will help you decide how hot, cold, wet, or windy it might be!

Date:

Astronomy

Jul. 23, 2013 Rise Set
Actual Time 6:06 AM CDT 8:15 PM CDT
Civil Twilight 5:37 AM CDT 8:44 PM CDT
Nautical Twilight 5:02 AM CDT 9:19 PM CDT
Astronomical Twilight 4:24 AM CDT 9:57 PM CDT
Moon 8:49 PM CDT (7/23) 7:10 AM CDT (7/23)
Length of Visible Light 15h 06m
Length of Day
14h 09m
Full, 99% of the Moon is Illuminated
Jul 23
Full
Jul 29
Last Quarter
Aug 6
New
Aug 14
First Quarter
Aug 20
Full

Hourly Weather History & Observations

Time (CDT) Temp. Heat Index Dew Point Humidity Pressure Visibility Wind Dir Wind Speed Gust Speed Precip Events Conditions
12:56 AM 73.9 °F - 72.9 °F 96% 29.92 in 10.0 mi South 3.5 mph - N/A   Clear
1:56 AM 73.9 °F - 73.9 °F 100% 29.90 in 10.0 mi SSE 4.6 mph - N/A   Clear
2:56 AM 74.8 °F - 74.8 °F 100% 29.89 in 10.0 mi South 4.6 mph - N/A   Clear
3:19 AM 75.2 °F - 75.2 °F 100% 29.91 in 10.0 mi SSW 5.8 mph - 0.00 in Rain , Thunderstorm Light Thunderstorms and Rain
3:56 AM 77.0 °F - 64.9 °F 66% 29.87 in 5.0 mi SW 25.3 mph 36.8 mph 0.00 in Thunderstorm Unknown
4:56 AM 73.9 °F - 66.9 °F 79% 29.86 in 10.0 mi South 23.0 mph 28.8 mph N/A Thunderstorm Thunderstorm
5:38 AM 73.4 °F - 66.2 °F 78% 29.90 in 10.0 mi ESE 24.2 mph 27.6 mph N/A Thunderstorm Overcast
5:56 AM 72.0 °F - 65.8 °F 81% 29.90 in 10.0 mi SE 21.9 mph 32.2 mph N/A Thunderstorm Thunderstorm
6:32 AM 69.8 °F - 66.2 °F 88% 29.90 in 6.0 mi SE 24.2 mph - 0.07 in Rain , Thunderstorm Light Thunderstorms and Rain
6:56 AM 70.0 °F - 68.0 °F 93% 29.89 in 10.0 mi SSE 19.6 mph - 0.07 in   Mostly Cloudy
7:18 AM 71.6 °F - 68.0 °F 88% 29.91 in 10.0 mi SSE 13.8 mph - N/A Thunderstorm Mostly Cloudy
7:32 AM 71.6 °F - 68.0 °F 88% 29.92 in 10.0 mi South 10.4 mph - 0.01 in Rain , Thunderstorm Light Thunderstorms and Rain
7:56 AM 70.9 °F - 68.0 °F 91% 30.01 in 6.0 mi NNE 29.9 mph 42.6 mph 0.09 in Rain , Thunderstorm Thunderstorms and Rain
8:10 AM 69.8 °F - 66.2 °F 88% 30.02 in 2.5 mi NE 19.6 mph 36.8 mph 0.12 in Rain , Thunderstorm Heavy Thunderstorms and Rain
8:13 AM 69.8 °F - 66.2 °F 88% 30.03 in 2.5 mi ENE 16.1 mph 36.8 mph 0.16 in Rain , Thunderstorm Heavy Thunderstorms and Rain
8:21 AM 68.0 °F - 66.2 °F 94% 30.05 in 3.0 mi East 10.4 mph - 0.26 in Rain , Thunderstorm Thunderstorms and Rain
8:28 AM 68.0 °F - 66.2 °F 94% 30.02 in 9.0 mi East 15.0 mph - 0.27 in Rain , Thunderstorm Thunderstorms and Rain
8:38 AM 66.2 °F - 66.2 °F 100% 29.99 in 2.5 mi East 10.4 mph - 0.41 in Rain , Thunderstorm Heavy Thunderstorms and Rain
8:45 AM 66.2 °F - 66.2 °F 100% 30.00 in 5.0 mi ESE 8.1 mph - 0.43 in Rain , Thunderstorm Thunderstorms and Rain
8:56 AM 68.0 °F - 66.9 °F 96% 30.00 in 10.0 mi SSE 6.9 mph - 0.43 in Rain , Thunderstorm Light Thunderstorms and Rain
9:56 AM 68.0 °F - 66.9 °F 96% 29.97 in 10.0 mi ESE 10.4 mph - 0.19 in Rain , Thunderstorm Light Thunderstorms and Rain
10:15 AM 69.8 °F - 66.2 °F 88% 29.96 in 10.0 mi South 6.9 mph - 0.00 in   Scattered Clouds
10:56 AM 73.9 °F - 68.9 °F 84% 29.92 in 10.0 mi SSE 9.2 mph - 0.00 in   Clear
11:56 AM 81.0 °F 84.4 °F 70.0 °F 69% 29.91 in 10.0 mi SSE 10.4 mph - N/A   Clear
12:56 PM 82.9 °F 87.0 °F 70.0 °F 65% 29.91 in 10.0 mi South 8.1 mph - N/A   Clear
1:56 PM 86.9 °F 93.3 °F 72.0 °F 61% 29.88 in 10.0 mi SSW 10.4 mph - N/A   Clear
2:56 PM 88.0 °F 97.5 °F 74.8 °F 65% 29.86 in 10.0 mi SSW 13.8 mph - N/A   Clear
3:56 PM 90.0 °F 102.5 °F 77.0 °F 65% 29.84 in 10.0 mi SSW 10.4 mph - N/A   Clear
4:56 PM 86.0 °F 96.9 °F 77.0 °F 74% 29.85 in 10.0 mi SSW 8.1 mph - N/A   Clear
5:56 PM 82.9 °F 92.8 °F 77.9 °F 85% 29.85 in 7.0 mi SSW 4.6 mph - N/A Thunderstorm Scattered Clouds
6:56 PM 77.9 °F - 74.8 °F 90% 29.86 in 10.0 mi East 4.6 mph - 0.07 in Rain Light Rain
7:16 PM 78.8 °F - 75.2 °F 89% 29.91 in 10.0 mi North 3.5 mph - 0.02 in Rain , Thunderstorm Light Thunderstorms and Rain
7:37 PM 77.0 °F - 75.2 °F 94% 29.94 in 8.0 mi NW 6.9 mph - 0.06 in Rain Light Rain
7:56 PM 74.8 °F - 72.9 °F 94% 29.93 in 9.0 mi NW 9.2 mph - 0.11 in Rain Rain
8:06 PM 75.2 °F - 73.4 °F 94% 29.91 in 10.0 mi West 6.9 mph - 0.03 in Rain , Thunderstorm Thunderstorms and Rain
8:42 PM 75.2 °F - 73.4 °F 94% 29.88 in 10.0 mi WSW 12.7 mph - 0.06 in Rain Rain
8:56 PM 73.9 °F - 73.9 °F 100% 29.86 in 10.0 mi SW 13.8 mph - 0.07 in Rain Light Rain
9:56 PM 73.9 °F - 70.0 °F 87% 29.86 in 10.0 mi SW 10.4 mph - 0.00 in   Clear
10:56 PM 73.9 °F - 70.9 °F 90% 29.86 in 10.0 mi Calm Calm - N/A   Mostly Cloudy
11:56 PM 72.9 °F - 68.0 °F 85% 29.88 in 10.0 mi Calm Calm - N/A   Mostly Cloudy